#timestamp,LO_Frequency,Hit,StdDev 
1620075615.2,286046998.4,N
1620075635.1,286046996.5,N
1620075636.0,286046996.5,N
1620075655.8,286046999.1,N
1620075675.6,286047000.7,N
1620075695.5,286047001.8,N
1620075715.3,286047002.3,N
1620075735.2,286047000.2,N
1620075755.9,286047000.9,N
1620075775.7,286046999.1,N
1620075795.6,286046996.7,N
1620075815.4,286046996.8,N
1620075835.2,286046997.4,N
1620075855.1,286046999.0,N
1620075856.0,286046999.0,N
1620075875.8,286046998.7,N
1620075895.7,286046996.6,N
1620075915.5,286046996.9,N
1620075935.3,286046995.8,N
1620075955.2,286046994.9,N
1620075975.9,286046995.3,N
1620075995.7,286046995.0,N
1620076015.6,286046995.1,N
1620076035.4,286046997.8,N
1620076055.3,286046997.1,N
1620076075.1,286046995.3,N
1620076076.0,286046995.3,N
1620076095.8,286046996.3,N
1620076115.7,286046995.8,N
1620076135.5,286046995.1,N
1620076185.4,286046995.1,E
1620076195.3,286046997.2,N
1620076215.1,286046998.2,P
1620076235.9,286047000.7,N
1620076255.7,286046999.6,N
1620076275.5,286046998.5,N
1620076295.4,286046998.4,N
1620076315.2,286047000.0,N
1620076335.1,286047000.2,N
1620076336.0,286047000.2,N
1620076355.8,286046998.1,N
1620076375.6,286046999.6,N
1620076395.5,286046998.7,N
1620076415.3,286046999.0,N
1620076435.2,286046998.6,N
1620076455.9,286046996.7,Y
1620076475.7,286046998.9,P
1620076495.6,286046996.9,P
1620076515.4,286046998.4,N
1620076535.2,286047001.2,N
1620076555.1,286047001.2,N
1620076556.0,286047001.2,N
1620076575.8,286046998.1,N
1620076595.7,286046999.5,N
1620076615.5,286046999.5,N
1620076635.3,286046998.8,N
1620076655.2,286047001.2,N
1620076675.0,286046997.0,N
1620076675.9,286046997.0,N
1620076695.8,286046997.2,N
1620076715.6,286046997.6,N
1620076735.4,286046996.7,N
1620076755.3,286046997.5,N
1620076775.1,286046997.2,N
1620076825.9,286046997.0,E
1620076835.8,286046998.8,N
1620076855.6,286047001.1,P
1620076875.5,286047000.9,N
1620076895.3,286046998.3,N
1620076915.2,286046998.3,N
1620076935.9,286047002.6,N
1620076955.7,286047004.0,N
1620076975.6,286047001.5,N
1620076995.4,286047002.6,N
1620077015.2,286047001.9,N
1620077035.1,286047003.2,N
1620077036.0,286047003.2,N
1620077055.8,286047004.0,N
1620077075.7,286047002.1,N
1620077095.5,286047000.1,N
1620077115.3,286047001.1,N
1620077135.2,286047001.4,N
1620077155.0,286047003.5,N
1620077155.9,286047003.5,N
1620077175.7,286047002.1,N
1620077195.6,286047002.6,N
1620077215.4,286047000.6,N
1620077235.3,286047000.1,N
1620077255.1,286047001.3,N
1620077256.0,286047001.3,N
1620077275.8,286047004.1,N
1620077295.7,286047002.9,N
1620077315.5,286047001.6,N
1620077335.4,286047005.6,Y
1620077355.2,286047003.7,P
1620077375.0,286047004.8,P
1620077375.9,286047004.8,P
1620077395.8,286047003.3,N
1620077415.6,286047007.4,Y
1620077435.4,286047004.2,P
1620077455.3,286047003.0,P
1620077475.1,286047007.6,P
1620077495.9,286047006.4,Y
1620077515.7,286047002.7,P
1620077535.5,286047002.7,N
1620077555.4,286047002.8,P
1620077575.2,286047002.3,N
1620077595.1,286046998.7,N
1620077596.0,286046998.7,N
1620077615.8,286046998.4,N
1620077635.6,286046998.9,N
1620077655.5,286046998.3,N
1620077675.3,286047002.2,N
1620077695.1,286047004.1,N
1620077715.9,286047001.0,N
1620077735.7,286046999.3,N
1620077755.6,286046996.9,N
1620077775.4,286046996.8,N
1620077795.2,286046993.8,N
1620077815.1,286046994.4,N
1620077816.0,286046994.4,N
1620077835.8,286046991.9,N
1620077855.6,286046992.4,N
1620077875.5,286046994.0,N
1620077895.3,286046999.1,N
1620077915.2,286046998.7,N
1620077935.9,286046999.2,N
1620077955.7,286046995.2,N
1620077975.6,286046995.9,N
1620077995.4,286046993.7,N
1620078015.2,286046995.4,N
1620078035.1,286046994.1,N
1620078036.0,286046994.1,N
1620078055.8,286046992.4,N
1620078075.7,286046994.5,N
1620078095.5,286046997.9,N
1620078115.3,286046995.6,N
1620078135.2,286046995.1,N
1620078155.9,286046994.8,N
1620078175.7,286046993.5,N
1620078195.6,286046994.2,N
1620078215.4,286046994.6,N
1620078235.3,286046995.7,N
1620078255.1,286046997.5,N
1620078256.0,286046997.5,N
1620078275.8,286046997.5,N
1620078295.7,286046995.4,N
1620078315.5,286046997.9,N
1620078335.4,286046999.0,N
1620078355.2,286046995.1,N
1620078375.0,286046995.2,N
1620078375.9,286046995.2,N
1620078395.8,286046997.7,N
1620078415.6,286046995.8,N
1620078435.5,286046997.1,N
1620078455.3,286047000.6,N
1620078475.1,286047000.0,N
1620078495.9,286047001.3,N
1620078515.7,286047001.5,N
1620078535.5,286047004.0,N
1620078555.4,286047001.7,N
1620078575.2,286047002.7,N
1620078595.1,286046999.7,N
1620078596.0,286046999.7,N
1620078615.8,286047002.5,N
1620078635.6,286047001.4,N
1620078655.5,286047000.7,N
1620078675.3,286046999.3,N
1620078695.2,286046998.4,N
1620078715.9,286046997.9,N
1620078735.7,286046995.8,N
1620078755.6,286046993.6,N
1620078775.4,286046998.1,N
1620078795.2,286046999.0,N
1620078815.1,286046997.7,N
1620078816.0,286046997.7,N
1620078835.8,286046998.4,N
1620078855.7,286047000.3,N
1620078875.5,286047000.0,N
1620078895.3,286047002.6,N
1620078915.2,286047001.0,N
1620078935.0,286046999.4,N
1620078935.9,286046999.4,N
1620078955.8,286046999.3,N
1620078975.6,286047000.0,N
1620078995.4,286046999.8,N
1620079015.3,286046998.6,N
1620079035.1,286047001.1,N
1620079055.8,286047001.4,N
1620079075.7,286046999.8,N
1620079095.5,286047000.0,N
1620079115.4,286047000.6,N
1620079135.2,286046997.3,N
1620079155.0,286046997.4,N
1620079155.9,286046997.4,N
1620079175.8,286046997.1,N
1620079195.6,286046996.8,N
